Location: Byszew
(52.1813°N, 19.2693°E)
Time: 14:14:23
(UTC+00:00)

MetOp-A - Pass Details

Date: 03 March 2021
Orbit: 819 x 821 km, 98.5° (Epoch: 13 April)

Event Time Altitude Azimuth Distance (km) Brightness Sun altitude
Rises 17:46:07 0° 151° (SSE) 3,345 7.0 -13.0°
Reaches altitude 10° 17:48:29 10° 149° (SSE) 2,416 6.2 -13.4°
Maximum altitude 17:53:45 62° 69° (ENE) 922 4.1 -14.2°
Drops below altitude 10° 17:59:04 10° 350° (N) 2,432 6.8 -15.0°
Sets 18:01:26 0° 347° (NNW) 3,369 7.6 -15.3°
